Radiation Dose at Monitoring Post of Fukushima Daini Nuclear Power Station
Date,Time,MP-1(microSv/h),MP-2(microSv/h),MP-3(microSv/h),MP-4(microSv/h),MP-5(microSv/h),MP-6(microSv/h),MP-7(microSv/h),Wind Direction,Wind Velocity(m/s),Rain
2014/03/26,00:00,0.8,0.5,0.8,0.7,0.7,0.3,0.3,west,15.2,No
2014/03/26,00:10,0.8,0.5,0.8,0.7,0.7,0.3,0.3,west,15.2,No
2014/03/26,00:20,0.8,0.5,0.8,0.7,0.7,0.3,0.3,west,12.1,No
2014/03/26,00:30,0.8,0.5,0.8,0.7,0.7,0.3,0.3,west,14.0,No
2014/03/26,00:40,0.8,0.5,0.8,0.7,0.7,0.3,0.3,west-northwest,9.5,No
2014/03/26,00:50,0.8,0.5,0.8,0.7,0.7,0.3,0.3,west,10.1,No
2014/03/26,01:00,0.8,0.5,0.8,0.7,0.7,0.3,0.3,west,4.6,No
2014/03/26,01:10,0.8,0.5,0.8,0.7,0.7,0.3,0.3,west,7.0,No
2014/03/26,01:20,0.8,0.5,0.8,0.7,0.7,0.3,0.3,west-northwest,2.6,No
2014/03/26,01:30,0.8,0.5,0.8,0.7,0.7,0.3,0.3,west,9.5,No
2014/03/26,01:40,0.8,0.5,0.8,0.7,0.7,0.3,0.3,west,7.5,No
2014/03/26,01:50,0.8,0.5,0.8,0.7,0.7,0.3,0.3,west,7.8,No
2014/03/26,02:00,0.8,0.5,0.8,0.7,0.7,0.3,0.3,west,12.1,No
2014/03/26,02:10,0.8,0.5,0.8,0.7,0.7,0.3,0.3,west,11.0,No
2014/03/26,02:20,0.8,0.5,0.8,0.7,0.7,0.3,0.3,west,12.9,No
2014/03/26,02:30,0.8,0.5,0.8,0.7,0.7,0.3,0.3,west,13.1,No
2014/03/26,02:40,0.8,0.5,0.8,0.7,0.7,0.3,0.3,west,13.0,No
2014/03/26,02:50,0.8,0.5,0.8,0.7,0.7,0.3,0.3,west,12.9,No
2014/03/26,03:00,0.8,0.5,0.8,0.7,0.7,0.3,0.3,west,14.8,No
2014/03/26,03:10,0.8,0.5,0.8,0.7,0.7,0.3,0.3,west,14.6,No
2014/03/26,03:20,0.8,0.5,0.8,0.7,0.7,0.3,0.3,west,15.2,No
2014/03/26,03:30,0.8,0.5,0.8,0.7,0.7,0.3,0.3,west,17.4,No
2014/03/26,03:40,0.8,0.5,0.8,0.7,0.7,0.3,0.3,west,16.0,No
2014/03/26,03:50,0.8,0.5,0.8,0.7,0.7,0.3,0.3,west,13.7,No
2014/03/26,04:00,0.8,0.5,0.8,0.7,0.7,0.3,0.3,west,14.6,No
2014/03/26,04:10,0.8,0.5,0.8,0.7,0.7,0.3,0.3,west,13.7,No
2014/03/26,04:20,0.8,0.5,0.8,0.7,0.7,0.3,0.3,west-northwest,14.0,No
2014/03/26,04:30,0.8,0.5,0.8,0.7,0.7,0.3,0.3,west-northwest,14.3,No
2014/03/26,04:40,0.8,0.5,0.8,0.7,0.7,0.3,0.3,west,12.5,No
2014/03/26,04:50,0.8,0.5,0.8,0.7,0.7,0.3,0.3,west,13.3,No
2014/03/26,05:00,0.8,0.5,0.8,0.7,0.7,0.3,0.3,west,13.3,No
2014/03/26,05:10,0.8,0.5,0.8,0.7,0.7,0.3,0.3,west,11.4,No
2014/03/26,05:20,0.8,0.5,0.8,0.7,0.7,0.3,0.3,west,10.8,No
2014/03/26,05:30,0.8,0.5,0.8,0.7,0.7,0.3,0.3,west,12.1,No
2014/03/26,05:40,0.8,0.5,0.8,0.7,0.7,0.3,0.3,west,11.1,No
2014/03/26,05:50,0.8,0.5,0.8,0.7,0.7,0.3,0.3,west,12.6,No
2014/03/26,06:00,0.8,0.5,0.8,0.7,0.7,0.3,0.3,west,11.2,No
2014/03/26,06:10,0.8,0.5,0.8,0.7,0.7,0.3,0.3,west,10.3,No
2014/03/26,06:20,0.8,0.5,0.8,0.7,0.7,0.3,0.3,west,10.3,No
2014/03/26,06:30,0.8,0.5,0.8,0.7,0.7,0.3,0.3,west,9.9,No
2014/03/26,06:40,0.8,0.5,0.8,0.7,0.7,0.3,0.3,west,11.4,No
2014/03/26,06:50,0.8,0.5,0.8,0.7,0.7,0.3,0.3,west,7.8,No
2014/03/26,07:00,0.8,0.5,0.8,0.7,0.7,0.3,0.3,west,7.1,No
2014/03/26,07:10,0.8,0.5,0.8,0.7,0.7,0.3,0.3,west,3.1,No
2014/03/26,07:20,0.8,0.5,0.8,0.7,0.7,0.3,0.3,west,3.1,No
2014/03/26,07:30,0.8,0.5,0.8,0.7,0.7,0.3,0.3,east-southeast,1.7,No
2014/03/26,07:40,0.8,0.5,0.8,0.7,0.7,0.3,0.3,southeast,3.6,No
2014/03/26,07:50,0.8,0.5,0.8,0.7,0.7,0.3,0.3,southeast,3.4,No
2014/03/26,08:00,0.8,0.5,0.8,0.7,0.7,0.3,0.3,southeast,2.6,No
2014/03/26,08:10,0.8,0.5,0.8,0.7,0.7,0.3,0.3,east-southeast,2.8,No
2014/03/26,08:20,0.8,0.5,0.8,0.7,0.7,0.3,0.3,east-northeast,2.7,No
2014/03/26,08:30,0.8,0.5,0.8,0.7,0.7,0.3,0.3,-,CALM,No
2014/03/26,08:40,0.8,0.5,0.8,0.7,0.7,0.3,0.3,-,CALM,No
2014/03/26,08:50,0.8,0.5,0.8,0.7,0.7,0.3,0.3,east,1.2,No
2014/03/26,09:00,0.8,0.5,0.8,0.7,0.7,0.3,0.3,east-southeast,0.7,No
2014/03/26,09:10,0.8,0.5,0.8,0.7,0.7,0.3,0.3,east,0.8,No
2014/03/26,09:20,0.8,0.5,0.8,0.7,0.7,0.3,0.3,east,1.7,No
2014/03/26,09:30,0.8,0.5,0.8,0.7,0.7,0.3,0.3,east-southeast,3.1,No
2014/03/26,09:40,0.8,0.5,0.8,0.7,0.7,0.3,0.3,east-southeast,2.8,No
2014/03/26,09:50,0.8,0.5,0.8,0.7,0.7,0.3,0.3,east-southeast,2.9,No
2014/03/26,10:00,0.8,0.5,0.8,0.7,0.7,0.3,0.3,southeast,2.5,No
2014/03/26,10:10,0.8,0.5,0.8,0.7,0.7,0.3,0.3,southeast,2.5,No
2014/03/26,10:20,0.8,0.5,0.8,0.7,0.7,0.3,0.3,south-southeast,2.1,No
2014/03/26,10:30,0.8,0.5,0.8,0.7,0.7,0.3,0.3,south,2.4,No
2014/03/26,10:40,0.8,0.5,0.8,0.7,0.7,0.3,0.3,south-southeast,2.4,No
2014/03/26,10:50,0.8,0.5,0.8,0.7,0.7,0.3,0.3,south,4.5,No
2014/03/26,11:00,0.8,0.5,0.8,0.7,0.7,0.3,0.3,south,5.6,No
2014/03/26,11:10,0.8,0.5,0.8,0.7,0.7,0.3,0.3,south,7.0,No
2014/03/26,11:20,0.8,0.5,0.8,0.7,0.7,0.3,0.3,south,7.0,No
2014/03/26,11:30,0.8,0.5,0.8,0.7,0.7,0.3,0.3,south,5.6,No
2014/03/26,11:40,0.8,0.5,0.8,0.7,0.7,0.3,0.3,south,6.2,No
2014/03/26,11:50,0.8,0.5,0.8,0.7,0.7,0.3,0.3,south,6.2,No
2014/03/26,12:00,0.8,0.5,0.8,0.7,0.7,0.3,0.3,south,6.2,No
2014/03/26,12:10,0.8,0.5,0.8,0.7,0.7,0.3,0.3,south,6.7,No
2014/03/26,12:20,0.8,0.5,0.8,0.7,0.7,0.3,0.3,south,6.3,No
2014/03/26,12:30,0.8,0.5,0.8,0.7,0.7,0.3,0.3,south,6.6,No
2014/03/26,12:40,0.8,0.5,0.8,0.7,0.7,0.3,0.3,south,7.8,No
2014/03/26,12:50,0.8,0.5,0.8,0.7,0.7,0.3,0.3,south,8.7,No
2014/03/26,13:00,0.8,0.5,0.8,0.7,0.7,0.3,0.3,south,8.9,No
2014/03/26,13:10,0.8,0.5,0.8,0.7,0.7,0.3,0.3,south,9.4,No
2014/03/26,13:20,0.8,0.5,0.8,0.7,0.7,0.3,0.3,south,9.2,No
2014/03/26,13:30,0.8,0.5,0.8,0.7,0.7,0.3,0.3,south,11.0,No
2014/03/26,13:40,0.8,0.5,0.8,0.7,0.7,0.3,0.3,south,10.2,No
2014/03/26,13:50,0.8,0.5,0.8,0.7,0.7,0.3,0.3,south,9.0,No
2014/03/26,14:00,0.8,0.5,0.8,0.7,0.7,0.3,0.3,south,10.2,No
2014/03/26,14:10,0.8,0.5,0.8,0.7,0.7,0.3,0.3,south,10.2,No
2014/03/26,14:20,0.8,0.5,0.8,0.7,0.7,0.3,0.3,south,9.4,No
2014/03/26,14:30,0.8,0.5,0.8,0.7,0.7,0.3,0.3,south,7.8,No
2014/03/26,14:40,0.8,0.5,0.8,0.7,0.7,0.3,0.3,south,9.2,No
2014/03/26,14:50,0.8,0.5,0.8,0.7,0.7,0.3,0.3,south,8.9,No
2014/03/26,15:00,0.8,0.5,0.8,0.7,0.7,0.3,0.3,south-southwest,8.0,No
2014/03/26,15:10,0.8,0.5,0.8,0.7,0.7,0.3,0.3,south,7.4,No
2014/03/26,15:20,0.8,0.5,0.8,0.7,0.7,0.3,0.3,south-southwest,7.1,No
2014/03/26,15:30,0.8,0.5,0.8,0.7,0.7,0.3,0.3,south,7.0,Yes
2014/03/26,15:40,0.8,0.5,0.8,0.7,0.7,0.3,0.3,south,7.0,Yes
2014/03/26,15:50,0.8,0.5,0.8,0.7,0.7,0.3,0.3,south,6.3,Yes
2014/03/26,16:00,0.8,0.5,0.8,0.7,0.7,0.3,0.3,south,5.6,Yes
2014/03/26,16:10,0.8,0.5,0.8,0.7,0.7,0.3,0.3,south,4.7,Yes
2014/03/26,16:20,0.8,0.5,0.8,0.7,0.7,0.3,0.3,south,4.5,No
2014/03/26,16:30,0.8,0.5,0.8,0.7,0.7,0.3,0.3,south,4.1,No
2014/03/26,16:40,0.8,0.5,0.8,0.7,0.7,0.3,0.3,south,3.1,No
2014/03/26,16:50,0.8,0.5,0.8,0.7,0.7,0.3,0.3,south-southeast,3.0,No
2014/03/26,17:00,0.8,0.5,0.8,0.7,0.7,0.3,0.3,southeast,2.5,No
2014/03/26,17:10,0.8,0.5,0.8,0.7,0.7,0.3,0.3,southeast,2.4,No
2014/03/26,17:20,0.8,0.5,0.8,0.7,0.7,0.3,0.3,east-southeast,1.9,Yes
2014/03/26,17:30,0.8,0.5,0.8,0.7,0.7,0.3,0.3,east,1.8,Yes
2014/03/26,17:40,0.8,0.5,0.8,0.7,0.7,0.3,0.3,east,1.4,No
2014/03/26,17:50,0.8,0.5,0.8,0.7,0.7,0.3,0.3,east-northeast,1.9,No
2014/03/26,18:00,0.8,0.5,0.8,0.7,0.7,0.3,0.3,east-northeast,1.7,Yes
2014/03/26,18:10,0.8,0.5,0.8,0.7,0.7,0.3,0.3,east-northeast,1.7,Yes
2014/03/26,18:20,0.8,0.5,0.8,0.7,0.7,0.3,0.3,northeast,2.1,Yes
2014/03/26,18:30,0.8,0.5,0.8,0.7,0.7,0.3,0.3,east-northeast,2.4,Yes
2014/03/26,18:40,0.8,0.5,0.8,0.7,0.7,0.3,0.3,north-northeast,1.9,Yes
2014/03/26,18:50,0.8,0.5,0.8,0.7,0.7,0.3,0.3,north-northwest,1.7,Yes
2014/03/26,19:00,0.8,0.5,0.8,0.7,0.7,0.3,0.3,north-northwest,1.9,Yes
2014/03/26,19:10,0.8,0.5,0.8,0.7,0.7,0.3,0.3,north,1.7,Yes
2014/03/26,19:20,0.8,0.5,0.8,0.7,0.7,0.3,0.3,north-northwest,2.7,Yes
2014/03/26,19:30,0.8,0.5,0.8,0.7,0.7,0.3,0.3,north-northwest,3.5,No
2014/03/26,19:40,0.8,0.5,0.8,0.7,0.7,0.3,0.3,north-northwest,4.7,No
2014/03/26,19:50,0.8,0.5,0.8,0.7,0.7,0.3,0.3,north-northwest,3.7,Yes
2014/03/26,20:00,0.8,0.5,0.8,0.7,0.7,0.3,0.3,north,4.2,Yes
2014/03/26,20:10,0.8,0.5,0.8,0.7,0.7,0.3,0.3,north,4.0,Yes
2014/03/26,20:20,0.8,0.5,0.8,0.7,0.7,0.3,0.3,north,5.0,Yes
2014/03/26,20:30,0.8,0.5,0.8,0.7,0.7,0.3,0.3,north,5.1,Yes
2014/03/26,20:40,0.8,0.5,0.8,0.7,0.7,0.3,0.3,north,5.5,Yes
2014/03/26,20:50,0.8,0.5,0.8,0.7,0.7,0.3,0.3,north-northwest,6.0,Yes
2014/03/26,21:00,0.8,0.5,0.8,0.7,0.7,0.3,0.3,north-northwest,6.5,Yes
2014/03/26,21:10,0.8,0.5,0.8,0.7,0.7,0.3,0.3,north-northwest,6.7,Yes
2014/03/26,21:20,0.8,0.5,0.8,0.7,0.7,0.3,0.3,north-northwest,6.6,Yes
2014/03/26,21:30,0.8,0.5,0.8,0.7,0.7,0.3,0.3,north,6.5,Yes
2014/03/26,21:40,0.8,0.5,0.8,0.7,0.7,0.3,0.3,north,7.5,Yes
2014/03/26,21:50,0.8,0.5,0.8,0.7,0.7,0.3,0.3,north,6.9,Yes
2014/03/26,22:00,0.8,0.5,0.8,0.7,0.7,0.3,0.3,north,6.7,Yes
2014/03/26,22:10,0.7,0.5,0.8,0.7,0.7,0.3,0.3,north-northwest,6.7,Yes
2014/03/26,22:20,0.8,0.5,0.8,0.7,0.7,0.3,0.3,north,7.0,Yes
2014/03/26,22:30,0.7,0.5,0.8,0.7,0.7,0.3,0.3,north,7.3,Yes
2014/03/26,22:40,0.7,0.5,0.8,0.7,0.7,0.3,0.3,north,6.9,Yes
2014/03/26,22:50,0.7,0.5,0.8,0.7,0.7,0.3,0.3,north,7.3,Yes
2014/03/26,23:00,0.7,0.5,0.8,0.7,0.7,0.3,0.3,north,6.2,Yes
2014/03/26,23:10,0.7,0.5,0.8,0.7,0.7,0.3,0.3,north,6.4,Yes
2014/03/26,23:20,0.7,0.5,0.8,0.7,0.7,0.3,0.3,north-northwest,6.3,Yes
2014/03/26,23:30,0.7,0.5,0.8,0.7,0.7,0.3,0.3,north-northwest,7.0,Yes
2014/03/26,23:40,0.7,0.5,0.8,0.7,0.7,0.3,0.3,north-northwest,6.5,Yes
2014/03/26,23:50,0.7,0.5,0.8,0.7,0.7,0.3,0.3,north-northwest,5.9,Yes
